COSMOS 2389

导读 | 星芒AI

COSMOS 2389 是俄罗斯于2002年发射的一颗军用通信卫星,搭载于“联盟”号火箭,运行在近地轨道。该卫星属于俄罗斯的军事通信系统,用于支持战略指挥与控制通信。由于其军事用途,关于其具体功能和性能的公开信息有限。COSMOS 2389 在轨道上运行多年后,最终于2014年退役。

基本信息
目录编号:
27436
目录名称:
COSMOS 2389
国际标识:
2002-026A
轨道中心:
EARTH
卫星名称:
COSMOS 2389
卫星全名:
--
卫星状态:
在轨 (已飞行8555 天)
发射日期:
2002-05-28 UTC
国别 :
俄罗斯(独联体) (CIS)
星等 :
--
轨道信息
数据来源 国际轨道数据
星历时间: 2025-10-28T20:34:15+0800
18小时前
查看轨道信息
半长轴: 7359.281km
偏心率: 0.0046305
轨道倾角: 82.952°
近地点辐角 184.402°
升交点赤经 340.463°
平近点角 288.317°
近地点: 947.068km
远地点: 1015.224km
周期: 104.716分钟
每日圈数: 13.75149
详细信息
使用方式:
暂无
2D轨道图
3D轨道图
轨道高度分析图
轨道倾角分析图
轨道综合分析图
查看轨道综合分析图